EW2356 Weather Reports


time (UTC)temp
F
wind
direction
speed
knots
gust
knots
rain 1hr
in
rain 24hr
in
rain mn
in
humidity
%
barometer
mb
20260901134510 77 257 0.9 4.3 0.00 0.00 0.00 80 1016.5
20260901133007 75 253 0.0 0.0 0.00 0.00 0.00 85 1016.5
20260901131507 73 227 0.0 0.0 0.00 0.00 0.00 92 1016.5
20260901130045 71 227 0.0 0.0 0.00 0.00 0.00 94 1016.5
20260901124552 70 227 0.0 0.0 0.00 0.00 0.00 95 1016.3
20260901123025 69 227 0.0 0.0 0.00 0.00 0.00 94 1016.2
20260901121523 68 227 0.0 0.0 0.00 0.00 0.00 94 1015.9
20260901120005 68 227 0.0 0.0 0.00 0.00 0.00 94 1015.8
20260901114504 68 227 0.0 0.0 0.00 0.00 0.00 94 1015.8
20260901113045 68 227 0.0 0.0 0.00 0.00 0.00 94 1015.6
20260901111548 68 227 0.0 0.0 0.00 0.00 0.00 94 1015.6
20260901110036 68 227 0.0 0.0 0.00 0.00 0.00 94 1015.5
20260901104524 68 227 0.0 0.0 0.00 0.00 0.00 94 1015.4
20260901103004 68 227 0.0 0.0 0.00 0.00 0.00 93 1015.3
20260901101503 68 227 0.0 0.0 0.00 0.00 0.00 93 1015.3
20260901100105 69 227 0.0 0.0 0.00 0.00 0.00 93 1015.2
20260901094542 69 227 0.0 0.0 0.00 0.00 0.00 93 1015.1
20260901093104 69 227 0.0 0.0 0.00 0.00 0.00 93 1015.0
20260901091529 69 227 0.0 0.0 0.00 0.00 0.00 93 1014.9
20260901090019 70 227 0.0 0.0 0.00 0.00 0.00 93 1014.9
20260901084558 70 227 0.0 0.0 0.00 0.00 0.00 93 1014.7
20260901083057 71 227 0.0 0.0 0.00 0.00 0.00 93 1014.5
20260901081538 71 226 0.0 0.0 0.00 0.00 0.00 92 1014.4
20260901080137 71 226 0.0 0.0 0.00 0.00 0.00 92 1014.3
20260901074518 71 226 0.0 0.0 0.00 0.00 0.00 92 1014.4
20260901073023 71 226 0.0 0.0 0.00 0.00 0.00 91 1014.4
20260901071604 72 226 0.0 0.0 0.00 0.00 0.00 90 1014.3
20260901064543 73 226 0.0 0.0 0.00 0.00 0.00 89 1014.4
20260901063042 73 226 0.0 0.0 0.00 0.00 0.00 91 1014.4
20260901061541 73 226 0.0 0.0 0.00 0.00 0.00 90 1014.4
20260901060043 73 226 0.0 0.0 0.00 0.00 0.00 91 1014.4
20260901054539 73 226 0.0 0.0 0.00 0.00 0.00 90 1014.4
20260901053038 73 226 0.0 0.0 0.00 0.00 0.00 90 1014.3
20260901051537 74 226 0.0 0.0 0.00 0.00 0.00 88 1014.3
20260901050030 74 226 0.0 0.0 0.00 0.00 0.00 88 1014.3
20260901044512 75 226 0.0 0.0 0.00 0.00 0.00 87 1014.3
20260901043011 75 226 0.0 0.0 0.00 0.00 0.00 86 1014.4
20260901041605 76 226 0.0 0.0 0.00 0.00 0.00 84 1014.3
20260901034542 76 226 0.0 0.0 0.00 0.00 0.00 86 1014.3
20260901033050 76 226 0.0 0.0 0.00 0.00 0.00 85 1014.3
20260901031516 77 226 0.0 0.0 0.00 0.00 0.00 86 1014.2
20260901030016 77 226 0.0 0.0 0.00 0.00 0.00 84 1014.3
20260901024606 78 226 0.0 0.0 0.00 0.00 0.00 85 1014.2
20260901023058 78 226 0.0 0.0 0.00 0.00 0.00 84 1014.2
20260901021540 79 226 0.0 0.0 0.00 0.00 0.00 83 1014.0
20260901020039 80 226 0.0 0.0 0.00 0.00 0.00 78 1014.0
20260901014521 82 226 0.0 0.0 0.00 0.00 0.00 74 1013.7
20260901013022 83 226 0.0 0.0 0.00 0.00 0.00 72 1013.5
20260901011503 83 226 0.0 0.0 0.00 0.00 0.00 71 1013.5
20260901010003 85 226 0.0 0.0 0.00 0.00 0.00 67 1013.3
20260901004553 86 226 0.0 0.0 0.00 0.00 0.00 66 1013.3
20260901003058 87 226 0.0 0.9 0.00 0.00 0.00 64 1013.2
20260901001555 88 226 0.0 0.9 0.00 0.00 0.00 62 1013.2
20260901000051 89 225 0.0 1.7 0.00 0.00 0.00 60 1013.2
20260831234554 90 225 0.0 3.5 0.00 0.00 0.00 58 1013.1
20260831233050 91 239 0.0 1.7 0.00 0.00 0.00 56 1013.2
20260831231549 92 230 0.0 1.7 0.00 0.00 0.00 53 1013.2
20260831230049 93 229 0.0 1.7 0.00 0.00 0.00 50 1013.2
20260831224532 95 233 0.0 3.5 0.00 0.00 0.00 49 1013.1
20260831223034 97 233 0.0 3.5 0.00 0.00 0.00 45 1013.0
20260831221522 98 233 0.0 3.5 0.00 0.00 0.00 44 1013.0
20260831220020 98 227 0.9 4.3 0.00 0.00 0.00 44 1013.2
20260831214555 97 235 0.9 3.5 0.00 0.00 0.00 44 1013.1
20260831213052 97 235 0.9 4.3 0.00 0.00 0.00 45 1013.2
20260831211534 96 247 1.7 6.1 0.00 0.00 0.00 46 1013.3
20260831210037 96 240 2.6 7.8 0.00 0.00 0.00 43 1013.3
20260831204516 96 243 5.2 8.7 0.00 0.00 0.00 43 1013.4
20260831203013 96 239 4.3 7.8 0.00 0.00 0.00 44 1013.4
20260831201554 96 224 1.7 7.0 0.00 0.00 0.00 46 1013.6
20260831200055 97 235 0.0 6.1 0.00 0.00 0.00 48 1013.9
20260831194536 96 218 1.7 7.0 0.00 0.00 0.00 45 1014.0
20260831193034 96 226 2.6 6.1 0.00 0.00 0.00 47 1014.1
20260831191512 95 231 2.6 7.0 0.00 0.00 0.00 47 1014.2
20260831190010 95 254 2.6 8.7 0.00 0.00 0.00 45 1014.3
20260831184551 95 243 3.5 7.8 0.00 0.00 0.00 46 1014.4
20260831183048 94 217 0.9 7.0 0.00 0.00 0.00 51 1014.6
20260831181533 93 227 2.6 7.8 0.00 0.00 0.00 48 1014.9
20260831180033 92 256 4.3 10.4 0.00 0.00 0.00 50 1015.1
20260831174510 92 268 4.3 7.0 0.00 0.00 0.00 51 1015.3
20260831173005 91 254 4.3 7.8 0.00 0.00 0.00 51 1015.5
20260831171547 90 260 1.7 8.7 0.00 0.00 0.00 53 1015.4
20260831170044 90 242 3.5 11.3 0.00 0.00 0.00 53 1015.6
20260831164523 89 258 3.5 7.8 0.00 0.00 0.00 54 1015.9
20260831163022 88 229 1.7 6.1 0.00 0.00 0.00 58 1016.0
20260831161500 87 256 5.2 8.7 0.00 0.00 0.00 57 1016.0
20260831160126 86 235 3.5 8.7 0.00 0.00 0.00 57 1016.0
20260831154537 85 240 2.6 7.0 0.00 0.00 0.00 61 1016.0
20260831153116 84 248 5.2 8.7 0.00 0.00 0.00 59 1016.0
20260831151515 83 264 2.6 7.8 0.00 0.00 0.00 62 1015.9
20260831150012 82 266 4.3 9.6 0.00 0.00 0.00 62 1016.0
20260831144554 81 249 3.5 7.8 0.00 0.00 0.00 64 1015.9
20260831143053 80 260 0.0 5.2 0.00 0.00 0.00 67 1015.8
20260831141530 80 247 0.0 0.0 0.00 0.00 0.00 68 1015.8
20260831140027 78 235 0.0 0.0 0.00 0.00 0.00 71 1015.8